When you browse on this site, cookies collect data to enhance your experience and personalize the content and advertising you see.
Visit our Privacy Policy to learn more. By continuing to use the site, you agree to this use of cookies and data.
  • In Deutschland
  • Länderverzeichnis
  • Für 7 Tage
  • Wassertemperatur
  • Wetterkarte
  • Widgets
  • user-avatar
    Anmelden

    Stündliche Wetter Durres

    Heute, 22 August, Donnerstag

    Zeit Temperatur Niederschläge Wind Luftdruck Luftfeuchtigkeit
    00:00 +25°C° 0 mm 1 m/S 761 mmHg 65%
    01:00 +25°C° 0 mm 1 m/S 761 mmHg 66%
    02:00 +25°C° 0 mm 1 m/S 761 mmHg 64%
    03:00 +24°C° 0 mm 1 m/S 761 mmHg 62%
    04:00 +24°C° 0 mm 1 m/S 761 mmHg 61%
    05:00 +26°C° 0 mm 1 m/S 761 mmHg 53%
    06:00 +28°C° 0 mm 2 m/S 761 mmHg 44%
    07:00 +30°C° 0 mm 2 m/S 762 mmHg 36%
    08:00 +32°C° 0 mm 2 m/S 762 mmHg 31%
    09:00 +35°C° 0 mm 1 m/S 762 mmHg 26%
    10:00 +37°C° 0 mm 1 m/S 762 mmHg 21%
    11:00 +39°C° 0 mm 2 m/S 761 mmHg 21%
    12:00 +39°C° 0 mm 3 m/S 761 mmHg 22%
    13:00 +41°C° 0 mm 4 m/S 761 mmHg 22%
    14:00 +40°C° 0 mm 4 m/S 760 mmHg 24%
    15:00 +38°C° 0 mm 4 m/S 760 mmHg 27%
    16:00 +37°C° 0 mm 4 m/S 760 mmHg 29%
    17:00 +34°C° 0 mm 4 m/S 760 mmHg 35%
    18:00 +31°C° 0 mm 3 m/S 760 mmHg 42%
    19:00 +28°C° 0 mm 2 m/S 761 mmHg 49%
    20:00 +28°C° 0 mm 2 m/S 761 mmHg 49%
    21:00 +27°C° 0 mm 1 m/S 761 mmHg 50%
    22:00 +27°C° 0 mm 1 m/S 761 mmHg 50%
    23:00 +26°C° 0 mm 1 m/S 761 mmHg 50%

    Morgen, 23 August, Freitag

    Zeit Temperatur Niederschläge Wind Luftdruck Luftfeuchtigkeit
    00:00 +26°C° 0 mm 1 m/S 761 mmHg 50%
    01:00 +26°C° 0 mm 2 m/S 761 mmHg 50%
    02:00 +26°C° 0 mm 1 m/S 761 mmHg 48%
    03:00 +26°C° 0 mm 1 m/S 761 mmHg 46%
    04:00 +26°C° 0 mm 1 m/S 761 mmHg 43%
    05:00 +28°C° 0 mm 1 m/S 761 mmHg 38%
    06:00 +30°C° 0 mm 1 m/S 761 mmHg 34%
    07:00 +32°C° 0 mm 1 m/S 762 mmHg 29%
    08:00 +34°C° 0 mm 1 m/S 762 mmHg 26%
    09:00 +37°C° 0 mm 1 m/S 761 mmHg 23%
    10:00 +40°C° 0 mm 1 m/S 761 mmHg 20%
    11:00 +39°C° 0 mm 3 m/S 761 mmHg 22%
    12:00 +38°C° 0 mm 4 m/S 761 mmHg 24%
    13:00 +37°C° 0 mm 5 m/S 761 mmHg 27%
    14:00 +36°C° 0 mm 4 m/S 760 mmHg 28%
    15:00 +36°C° 0 mm 4 m/S 760 mmHg 29%
    16:00 +36°C° 0 mm 4 m/S 760 mmHg 31%
    17:00 +34°C° 0 mm 3 m/S 760 mmHg 36%
    18:00 +31°C° 0 mm 2 m/S 760 mmHg 41%
    19:00 +29°C° 0 mm 2 m/S 760 mmHg 45%
    20:00 +28°C° 0 mm 3 m/S 760 mmHg 46%
    21:00 +28°C° 0 mm 4 m/S 761 mmHg 46%
    22:00 +27°C° 0 mm 5 m/S 761 mmHg 46%
    23:00 +27°C° 0 mm 4 m/S 761 mmHg 50%

    übermorgen, 24 August, Samstag

    Zeit Temperatur Niederschläge Wind Luftdruck Luftfeuchtigkeit
    00:00 +27°C° 0 mm 4 m/S 761 mmHg 53%
    01:00 +26°C° 0 mm 4 m/S 761 mmHg 57%
    02:00 +26°C° 0 mm 3 m/S 760 mmHg 54%
    03:00 +27°C° 0 mm 3 m/S 760 mmHg 51%
    04:00 +27°C° 0 mm 3 m/S 760 mmHg 49%
    05:00 +28°C° 0 mm 2 m/S 760 mmHg 43%
    06:00 +29°C° 0 mm 2 m/S 760 mmHg 38%
    07:00 +31°C° 0 mm 1 m/S 761 mmHg 33%
    08:00 +32°C° 0 mm 1 m/S 761 mmHg 31%
    09:00 +33°C° 0 mm 1 m/S 761 mmHg 28%
    10:00 +36°C° 0 mm 2 m/S 761 mmHg 25%
    11:00 +37°C° 0 mm 2 m/S 760 mmHg 24%
    12:00 +38°C° 0 mm 3 m/S 760 mmHg 23%
    13:00 +40°C° 0 mm 4 m/S 760 mmHg 22%
    14:00 +40°C° 0 mm 4 m/S 759 mmHg 22%
    15:00 +40°C° 0 mm 5 m/S 759 mmHg 22%
    16:00 +40°C° 0 mm 5 m/S 759 mmHg 22%
    17:00 +36°C° 0 mm 5 m/S 759 mmHg 32%
    18:00 +33°C° 0 mm 4 m/S 759 mmHg 41%
    19:00 +29°C° 0 mm 4 m/S 759 mmHg 51%
    20:00 +29°C° 0 mm 5 m/S 760 mmHg 53%
    21:00 +28°C° 0 mm 6 m/S 760 mmHg 56%
    22:00 +28°C° 0 mm 6 m/S 760 mmHg 58%
    23:00 +28°C° 0 mm 5 m/S 760 mmHg 59%

    25 August, Sonntag

    Zeit Temperatur Niederschläge Wind Luftdruck Luftfeuchtigkeit
    00:00 +27°C° 0 mm 3 m/S 760 mmHg 60%
    01:00 +27°C° 0 mm 2 m/S 759 mmHg 61%
    02:00 +27°C° 0 mm 2 m/S 759 mmHg 59%
    03:00 +26°C° 0 mm 2 m/S 759 mmHg 58%
    04:00 +25°C° 0 mm 2 m/S 759 mmHg 57%
    05:00 +27°C° 0 mm 1 m/S 759 mmHg 50%
    06:00 +29°C° 0 mm 1 m/S 759 mmHg 43%
    07:00 +31°C° 0 mm 1 m/S 759 mmHg 36%
    08:00 +34°C° 0 mm 2 m/S 759 mmHg 31%
    09:00 +37°C° 0 mm 2 m/S 759 mmHg 27%
    10:00 +39°C° 0 mm 3 m/S 759 mmHg 22%
    11:00 +40°C° 0 mm 4 m/S 759 mmHg 24%
    12:00 +39°C° 0 mm 5 m/S 759 mmHg 25%
    13:00 +39°C° 0 mm 6 m/S 759 mmHg 27%
    14:00 +39°C° 0 mm 6 m/S 758 mmHg 28%
    15:00 +38°C° 0 mm 6 m/S 758 mmHg 29%
    16:00 +38°C° 0 mm 6 m/S 758 mmHg 30%
    17:00 +35°C° 0 mm 5 m/S 758 mmHg 37%
    18:00 +32°C° 0 mm 5 m/S 758 mmHg 44%
    19:00 +29°C° 0 mm 4 m/S 759 mmHg 51%
    20:00 +29°C° 0 mm 4 m/S 759 mmHg 52%
    21:00 +29°C° 0 mm 4 m/S 759 mmHg 53%
    22:00 +28°C° 0 mm 4 m/S 759 mmHg 53%
    23:00 +28°C° 0 mm 3 m/S 759 mmHg 54%

    26 August, Montag

    Zeit Temperatur Niederschläge Wind Luftdruck Luftfeuchtigkeit
    00:00 +28°C° 0 mm 3 m/S 759 mmHg 54%
    01:00 +27°C° 0 mm 3 m/S 759 mmHg 54%
    02:00 +27°C° 0 mm 3 m/S 759 mmHg 52%
    03:00 +28°C° 0 mm 3 m/S 759 mmHg 49%
    04:00 +28°C° 0 mm 3 m/S 759 mmHg 47%
    05:00 +28°C° 0 mm 3 m/S 759 mmHg 44%
    06:00 +29°C° 0 mm 3 m/S 759 mmHg 41%
    07:00 +30°C° 0 mm 3 m/S 759 mmHg 39%
    08:00 +33°C° 0 mm 3 m/S 760 mmHg 33%
    09:00 +36°C° 0 mm 3 m/S 760 mmHg 28%
    10:00 +39°C° 0 mm 3 m/S 760 mmHg 22%
    11:00 +40°C° 0 mm 4 m/S 760 mmHg 23%
    12:00 +40°C° 0 mm 5 m/S 759 mmHg 24%
    13:00 +40°C° 0 mm 6 m/S 759 mmHg 25%
    14:00 +40°C° 0 mm 6 m/S 759 mmHg 26%
    15:00 +39°C° 0 mm 6 m/S 759 mmHg 28%
    16:00 +38°C° 0 mm 6 m/S 759 mmHg 30%
    17:00 +35°C° 0 mm 6 m/S 760 mmHg 37%
    18:00 +32°C° 0 mm 6 m/S 760 mmHg 44%
    19:00 +29°C° 0 mm 6 m/S 760 mmHg 51%
    20:00 +29°C° 0 mm 5 m/S 760 mmHg 51%
    21:00 +29°C° 0 mm 4 m/S 761 mmHg 51%
    22:00 +29°C° 0 mm 4 m/S 761 mmHg 51%
    23:00 +28°C° 0 mm 4 m/S 761 mmHg 52%

    27 August, Dienstag

    Zeit Temperatur Niederschläge Wind Luftdruck Luftfeuchtigkeit
    00:00 +27°C° 0 mm 5 m/S 761 mmHg 54%
    01:00 +27°C° 0 mm 5 m/S 760 mmHg 56%
    02:00 +27°C° 0 mm 4 m/S 760 mmHg 54%
    03:00 +27°C° 0 mm 4 m/S 760 mmHg 53%
    04:00 +27°C° 0 mm 3 m/S 760 mmHg 51%
    05:00 +28°C° 0 mm 3 m/S 760 mmHg 47%
    06:00 +29°C° 0 mm 3 m/S 760 mmHg 43%
    07:00 +30°C° 0 mm 3 m/S 760 mmHg 39%
    08:00 +33°C° 0 mm 3 m/S 761 mmHg 34%
    09:00 +35°C° 0 mm 2 m/S 761 mmHg 30%
    10:00 +38°C° 0 mm 2 m/S 761 mmHg 25%
    11:00 +38°C° 0 mm 3 m/S 760 mmHg 25%
    12:00 +38°C° 0 mm 4 m/S 760 mmHg 25%
    13:00 +40°C° 0 mm 5 m/S 760 mmHg 25%
    14:00 +39°C° 0 mm 5 m/S 760 mmHg 27%
    15:00 +37°C° 0 mm 5 m/S 760 mmHg 30%
    16:00 +36°C° 0 mm 5 m/S 760 mmHg 33%
    17:00 +34°C° 0 mm 5 m/S 760 mmHg 39%
    18:00 +30°C° 0 mm 5 m/S 760 mmHg 46%
    19:00 +28°C° 0 mm 5 m/S 760 mmHg 53%
    20:00 +27°C° 0 mm 4 m/S 760 mmHg 52%
    21:00 +27°C° 0 mm 4 m/S 761 mmHg 51%
    22:00 +26°C° 0 mm 3 m/S 761 mmHg 50%
    23:00 +26°C° 0 mm 3 m/S 761 mmHg 49%
    Mehr zeigen